Location: Unspecified
(0.0000°N, 0.0000°E)
Time: 22:38:22
(UTC+00:00)

Cosmos 80 Rocket - Pass Details

Date: 02 October 2021
Orbit: 1360 x 1510 km, 56.1° (Epoch: 24 October)

Event Time Altitude Azimuth Distance (km) Brightness Sun altitude
Rises 21:06:38 0° 289° (WNW) 4,557 8.6 -49.2°
Reaches altitude 10° 21:11:38 10° 266° (W) 3,547 7.9 -50.5°
Maximum altitude 21:15:39 14° 237° (WSW) 3,226 7.5 -51.5°
Drops below altitude 10° 21:19:39 10° 209° (SSW) 3,496 7.6 -52.4°
Enters shadow 21:21:24 - 199° (SSW) 3,773 7.7 -52.9°
